User: anonymous   Login
Location: Unspecified
(0.0000°N, 0.0000°E)
Time: 14:23:56
(UTC+00:00)
Language:

CUBESAT XI-V - Orbit

View from above orbital plane
View from above orbital plane
View from above satellite
View from above satellite

Ground track
Ground track

The orbit data is extracted from the following two-line orbital elements,

1 28895U 05043F   24146.33365107  .00003002  00000-0  53593-3 0  9992
2 28895  98.1984 282.1335 0016810  72.0073 288.2962 14.67624341991107
Epoch (UTC): 25 May 2024 08:00:27
Eccentricity: 0.0016810
inclination: 98.1984°
perigee height: 657 km
apogee height: 680 km
right ascension of ascending node: 282.1335°
argument of perigee: 72.0073°
revolutions per day: 14.67624341
mean anomaly at epoch: 288.2962°
orbit number at epoch: 99110

The dashed part of the orbit path shows where the satellite is in the earth's shadow,  

DLR